Location: ?????
(31.7405°N, 35.1927°E)
Time: 02:35:00
(UTC+00:00)

Sich 1 - Pass Details

Date: 17 February 2020
Orbit: 595 x 624 km, 82.5° (Epoch: 05 April)

Event Time Altitude Azimuth Distance (km) Brightness Sun altitude
Rises 03:22:14 0° 2° (N) 2,843 6.4 -12.9°
Reaches altitude 10° 03:24:31 10° 9° (N) 1,940 5.6 -12.4°
Maximum altitude 03:28:37 43° 81° (E) 849 4.4 -11.6°
Drops below altitude 10° 03:32:42 10° 153° (SSE) 1,942 6.1 -10.7°
Sets 03:34:59 0° 160° (SSE) 2,846 6.9 -10.2°
